Location: Unspecified
(41.1637°N, 24.2901°E)
Time: 15:17:02
(UTC+02:00)

X-37B - Pass Details

Date: 15 March 2021
Orbit: 380 x 394 km, 45.0° (Epoch: 07 April)

Event Time Altitude Azimuth Distance (km) Brightness Sun altitude
Rises 18:00:17 0° 252° (WSW) 2,260 6.0 -6.6°
Reaches altitude 10° 18:02:21 10° 254° (WSW) 1,411 4.8 -7.0°
Maximum altitude 18:05:31 76° 339° (NNW) 403 0.7 -7.6°
Drops below altitude 10° 18:08:43 10° 67° (ENE) 1,423 2.9 -8.2°
Enters shadow 18:08:54 - 68° (ENE) 1,495 3.0 -8.2°
